Volver al catálogo

BLACKJACK ACES-3

ActivoMilitarSSO
NORAD 56950·PAYLOAD·🇺🇸 United States

Lanzado Jun 12, 2023 desde Vandenberg Space Force Base

Loading…

Próximos Pases (próximas 24 horas)

TLE

ActualizadoSource: Space-Track

Época: Sep 13, 2026, 21:59 UTC

1 56950U 23084U   26256.91664638  .00004031  00000-0  19724-3 0  9990
2 56950  97.6339  32.8824 0002849  86.9597 273.1963 15.18781404180636

Sigue BLACKJACK ACES-3 en tiempo real con AllMySat

Download on the App Store